Location: Buchdorf
(48.7842°N, 10.8275°E)
Time: 23:25:17
(UTC+00:00)

SL-16 R/B - Pass Details

Date: 09 April 2020
Orbit: 985 x 1007 km, 99.5° (Epoch: 29 May)

Event Time Altitude Azimuth Distance (km) Brightness Sun altitude
Exits shadow 23:48:39 33° 87° (E) 1,625 3.7 -32.8°
Maximum altitude 23:49:59 36° 61° (ENE) 1,527 3.7 -32.7°
Drops below altitude 10° 23:55:35 10° 357° (N) 2,775 5.7 -32.6°
Sets 23:58:14 0° 350° (N) 3,724 6.5 -32.5°
